User: anonymous   Login
Location: Observatorio Las Palmas
(29.0667°N, 110.9333°W)
Time: 11:15:31
(UTC-07:00)
Language:

NOAA 19 - Orbit

View from above orbital plane
View from above orbital plane
View from above satellite
View from above satellite

Ground track
Ground track

The orbit data is extracted from the following two-line orbital elements,

1 33591U 09005A   15183.47283371  .00000061  00000-0  57817-4 0  9997
2 33591 098.9906 133.3884 0014885 124.2057 236.0527 14.11951053329640
Epoch (UTC): 02 July 2015 11:20:52
Eccentricity: 0.0014885
inclination: 98.9906°
perigee height: 842 km
apogee height: 863 km
right ascension of ascending node: 133.3884°
argument of perigee: 124.2057°
revolutions per day: 14.11951053
mean anomaly at epoch: 236.0527°
orbit number at epoch: 32964

The dashed part of the orbit path shows where the satellite is in the earth's shadow,  

DLR